| time (UTC) | temp C | wind direction | speed KPH | gust KPH | rain 1hr cm | rain 24hr cm | rain mn cm | humidity % | barometer mb |
| 20260506222053 | 15 | 221 | 4.8 | 12.9 | 0.00 | 0.00 | 0.00 | 71 | 1021.4 |
| 20260506221559 | 15 | 0 | 4.8 | 14.5 | 0.00 | 0.00 | 0.00 | 72 | 1021.4 |
| 20260506221053 | 15 | 154 | 4.8 | 17.7 | 0.00 | 0.00 | 0.00 | 72 | 1021.5 |
| 20260506220552 | 15 | 283 | 4.8 | 17.7 | 0.00 | 0.00 | 0.00 | 77 | 1021.5 |
| 20260506220056 | 15 | 229 | 6.4 | 17.7 | 0.00 | 0.00 | 0.00 | 71 | 1021.6 |
| 20260506215557 | 15 | 220 | 6.4 | 16.1 | 0.00 | 0.00 | 0.00 | 72 | 1021.6 |
| 20260506215053 | 16 | 207 | 6.4 | 16.1 | 0.00 | 0.00 | 0.00 | 70 | 1021.5 |
| 20260506214555 | 16 | 213 | 3.2 | 16.1 | 0.00 | 0.00 | 0.00 | 69 | 1021.4 |
| 20260506214053 | 16 | 0 | 4.8 | 16.1 | 0.00 | 0.00 | 0.00 | 72 | 1021.5 |
| 20260506213552 | 15 | 240 | 6.4 | 14.5 | 0.00 | 0.00 | 0.00 | 77 | 1021.4 |
| 20260506213056 | 16 | 223 | 8.0 | 14.5 | 0.00 | 0.00 | 0.00 | 70 | 1021.4 |
| 20260506212555 | 16 | 242 | 4.8 | 17.7 | 0.00 | 0.00 | 0.00 | 70 | 1021.4 |
| 20260506212056 | 16 | 96 | 6.4 | 17.7 | 0.00 | 0.00 | 0.00 | 71 | 1021.4 |
| 20260506211557 | 16 | 182 | 3.2 | 17.7 | 0.00 | 0.00 | 0.00 | 73 | 1021.4 |
| 20260506211057 | 16 | 290 | 6.4 | 14.5 | 0.00 | 0.00 | 0.00 | 71 | 1021.6 |
| 20260506210556 | 16 | 254 | 3.2 | 14.5 | 0.00 | 0.00 | 0.00 | 71 | 1021.4 |
| 20260506210058 | 16 | 277 | 4.8 | 19.3 | 0.00 | 0.00 | 0.00 | 71 | 1021.4 |
| 20260506205558 | 15 | 175 | 4.8 | 19.3 | 0.00 | 0.00 | 0.00 | 71 | 1021.3 |
| 20260506205055 | 16 | 229 | 4.8 | 14.5 | 0.00 | 0.00 | 0.00 | 71 | 1021.4 |
| 20260506204557 | 16 | 214 | 3.2 | 8.0 | 0.00 | 0.00 | 0.00 | 72 | 1021.4 |
| 20260506204057 | 16 | 126 | 1.6 | 14.5 | 0.00 | 0.00 | 0.00 | 75 | 1021.3 |
| 20260506203556 | 15 | 154 | 4.8 | 14.5 | 0.00 | 0.00 | 0.00 | 75 | 1021.4 |
| 20260506203055 | 15 | 216 | 1.6 | 9.7 | 0.00 | 0.00 | 0.00 | 75 | 1021.3 |
| 20260506202556 | 15 | 254 | 0.0 | 11.3 | 0.00 | 0.00 | 0.00 | 76 | 1021.3 |
| 20260506202056 | 15 | 209 | 1.6 | 11.3 | 0.00 | 0.00 | 0.00 | 76 | 1021.4 |
| 20260506201620 | 15 | 209 | 3.2 | 11.3 | 0.00 | 0.00 | 0.00 | 75 | 1021.4 |
| 20260506201055 | 15 | 76 | 3.2 | 9.7 | 0.00 | 0.00 | 0.00 | 77 | 1021.5 |
| 20260506200556 | 15 | 229 | 1.6 | 12.9 | 0.00 | 0.00 | 0.00 | 76 | 1021.4 |
| 20260506200057 | 14 | 234 | 1.6 | 12.9 | 0.00 | 0.00 | 0.00 | 78 | 1021.5 |
| 20260506195556 | 14 | 178 | 1.6 | 9.7 | 0.00 | 0.00 | 0.00 | 77 | 1021.5 |
| 20260506195057 | 14 | 0 | 3.2 | 11.3 | 0.00 | 0.00 | 0.00 | 79 | 1021.3 |
| 20260506194557 | 14 | 227 | 3.2 | 14.5 | 0.00 | 0.00 | 0.00 | 78 | 1021.3 |
| 20260506194058 | 14 | 219 | 4.8 | 14.5 | 0.00 | 0.00 | 0.00 | 79 | 1021.2 |
| 20260506193556 | 14 | 205 | 3.2 | 9.7 | 0.00 | 0.00 | 0.00 | 79 | 1021.2 |
| 20260506193056 | 14 | 110 | 1.6 | 11.3 | 0.00 | 0.00 | 0.00 | 79 | 1021.2 |
| 20260506192556 | 14 | 183 | 4.8 | 11.3 | 0.00 | 0.00 | 0.00 | 78 | 1021.3 |
| 20260506192056 | 14 | 159 | 1.6 | 9.7 | 0.00 | 0.00 | 0.00 | 79 | 1021.1 |
| 20260506191559 | 14 | 0 | 1.6 | 9.7 | 0.00 | 0.00 | 0.00 | 80 | 1021.1 |
| 20260506191056 | 14 | 186 | 0.0 | 8.0 | 0.00 | 0.00 | 0.00 | 80 | 1021.1 |
| 20260506190559 | 14 | 222 | 1.6 | 8.0 | 0.00 | 0.00 | 0.00 | 80 | 1021.1 |
| 20260506190056 | 14 | 230 | 1.6 | 11.3 | 0.00 | 0.00 | 0.00 | 80 | 1021.0 |
| 20260506185556 | 14 | 227 | 3.2 | 11.3 | 0.00 | 0.00 | 0.00 | 80 | 1020.9 |
| 20260506185056 | 14 | 0 | 1.6 | 8.0 | 0.00 | 0.00 | 0.00 | 80 | 1021.1 |
| 20260506184601 | 14 | 223 | 1.6 | 9.7 | 0.00 | 0.00 | 0.00 | 80 | 1021.0 |
| 20260506184058 | 14 | 207 | 1.6 | 9.7 | 0.00 | 0.00 | 0.00 | 80 | 1021.0 |
| 20260506183557 | 14 | 217 | 1.6 | 9.7 | 0.00 | 0.00 | 0.00 | 81 | 1021.0 |
| 20260506183100 | 13 | 198 | 0.0 | 6.4 | 0.00 | 0.00 | 0.00 | 82 | 1021.0 |
| 20260506182556 | 13 | 202 | 1.6 | 9.7 | 0.00 | 0.00 | 0.00 | 82 | 1020.9 |
| 20260506182056 | 13 | 0 | 3.2 | 9.7 | 0.00 | 0.00 | 0.00 | 83 | 1020.8 |
| 20260506181555 | 13 | 182 | 1.6 | 11.3 | 0.00 | 0.00 | 0.00 | 83 | 1020.9 |
| 20260506181052 | 13 | 168 | 4.8 | 11.3 | 0.00 | 0.00 | 0.00 | 82 | 1021.0 |
| 20260506180556 | 13 | 237 | 1.6 | 9.7 | 0.00 | 0.00 | 0.00 | 82 | 1021.0 |
| 20260506180058 | 13 | 201 | 4.8 | 9.7 | 0.00 | 0.00 | 0.00 | 83 | 1020.9 |
| 20260506175553 | 13 | 211 | 1.6 | 6.4 | 0.00 | 0.00 | 0.00 | 83 | 1021.0 |
| 20260506175054 | 13 | 200 | 0.0 | 6.4 | 0.00 | 0.00 | 0.00 | 82 | 1020.9 |
| 20260506174555 | 13 | 0 | 1.6 | 6.4 | 0.00 | 0.00 | 0.00 | 83 | 1020.8 |
| 20260506174052 | 13 | 0 | 0.0 | 6.4 | 0.00 | 0.00 | 0.00 | 83 | 1020.6 |
| 20260506173554 | 13 | 0 | 0.0 | 6.4 | 0.00 | 0.00 | 0.00 | 83 | 1020.6 |
| 20260506173113 | 13 | 0 | 0.0 | 6.4 | 0.00 | 0.00 | 0.00 | 83 | 1020.6 |
| 20260506172551 | 13 | 0 | 0.0 | 6.4 | 0.00 | 0.00 | 0.00 | 83 | 1020.7 |
| 20260506172052 | 13 | 0 | 1.6 | 6.4 | 0.00 | 0.00 | 0.00 | 84 | 1020.7 |
| 20260506171557 | 13 | 0 | 1.6 | 4.8 | 0.00 | 0.00 | 0.00 | 83 | 1020.9 |
| 20260506171052 | 13 | 0 | 0.0 | 6.4 | 0.00 | 0.00 | 0.00 | 84 | 1020.9 |
| 20260506170553 | 13 | 0 | 0.0 | 6.4 | 0.00 | 0.00 | 0.00 | 84 | 1020.9 |
| 20260506170054 | 13 | 169 | 0.0 | 6.4 | 0.00 | 0.00 | 0.00 | 83 | 1020.6 |
| 20260506165553 | 13 | 0 | 0.0 | 6.4 | 0.00 | 0.00 | 0.00 | 84 | 1020.7 |
| 20260506165052 | 13 | 80 | 1.6 | 6.4 | 0.00 | 0.00 | 0.00 | 84 | 1020.7 |
| 20260506164555 | 13 | 202 | 3.2 | 6.4 | 0.00 | 0.00 | 0.00 | 84 | 1020.8 |
| 20260506164052 | 13 | 260 | 0.0 | 3.2 | 0.00 | 0.00 | 0.00 | 84 | 1020.9 |
| 20260506163552 | 13 | 0 | 0.0 | 3.2 | 0.00 | 0.00 | 0.00 | 85 | 1020.9 |
| 20260506163113 | 13 | 260 | 0.0 | 4.8 | 0.00 | 0.00 | 0.00 | 85 | 1020.7 |
| 20260506162552 | 13 | 84 | 0.0 | 4.8 | 0.00 | 0.00 | 0.00 | 85 | 1020.8 |
| 20260506162052 | 13 | 84 | 0.0 | 4.8 | 0.00 | 0.00 | 0.00 | 85 | 1020.5 |
| 20260506161600 | 13 | 0 | 0.0 | 6.4 | 0.00 | 0.00 | 0.00 | 86 | 1020.6 |
| 20260506161052 | 12 | 0 | 0.0 | 8.0 | 0.00 | 0.00 | 0.00 | 86 | 1020.5 |
| 20260506160552 | 12 | 66 | 1.6 | 8.0 | 0.00 | 0.00 | 0.00 | 86 | 1020.6 |
| 20260506160053 | 12 | 211 | 0.0 | 3.2 | 0.00 | 0.00 | 0.00 | 87 | 1020.6 |
| 20260506155552 | 12 | 0 | 1.6 | 3.2 | 0.00 | 0.00 | 0.00 | 87 | 1020.4 |
| 20260506155053 | 12 | 95 | 0.0 | 8.0 | 0.00 | 0.00 | 0.00 | 87 | 1020.4 |
| 20260506154602 | 12 | 93 | 1.6 | 8.0 | 0.00 | 0.00 | 0.00 | 88 | 1020.4 |
| 20260506154053 | 12 | 86 | 1.6 | 3.2 | 0.00 | 0.00 | 0.00 | 87 | 1020.2 |
| 20260506153553 | 12 | 173 | 1.6 | 3.2 | 0.00 | 0.00 | 0.00 | 88 | 1020.2 |
| 20260506153056 | 12 | 0 | 0.0 | 3.2 | 0.00 | 0.00 | 0.00 | 88 | 1020.3 |
| 20260506152553 | 12 | 0 | 0.0 | 6.4 | 0.00 | 0.00 | 0.00 | 88 | 1020.4 |
| 20260506152057 | 12 | 0 | 0.0 | 6.4 | 0.00 | 0.00 | 0.00 | 88 | 1020.4 |
| 20260506151634 | 12 | 76 | 0.0 | 3.2 | 0.00 | 0.00 | 0.00 | 88 | 1020.5 |
| 20260506151055 | 12 | 0 | 0.0 | 6.4 | 0.00 | 0.00 | 0.00 | 88 | 1020.7 |
| 20260506150558 | 12 | 0 | 0.0 | 6.4 | 0.00 | 0.00 | 0.00 | 88 | 1020.6 |
| 20260506150054 | 12 | 223 | 0.0 | 6.4 | 0.00 | 0.00 | 0.00 | 88 | 1020.5 |
| 20260506145558 | 12 | 179 | 1.6 | 6.4 | 0.00 | 0.00 | 0.00 | 88 | 1020.5 |
| 20260506145056 | 12 | 0 | 0.0 | 0.0 | 0.00 | 0.00 | 0.00 | 89 | 1020.3 |
| 20260506144554 | 12 | 0 | 0.0 | 0.0 | 0.00 | 0.00 | 0.00 | 89 | 1020.2 |
| 20260506144055 | 12 | 0 | 0.0 | 0.0 | 0.00 | 0.00 | 0.00 | 89 | 1020.1 |
| 20260506143556 | 12 | 0 | 0.0 | 0.0 | 0.00 | 0.00 | 0.00 | 89 | 1020.4 |
| 20260506143056 | 12 | 0 | 0.0 | 0.0 | 0.00 | 0.00 | 0.00 | 89 | 1020.4 |
| 20260506142556 | 12 | 0 | 0.0 | 0.0 | 0.00 | 0.00 | 0.00 | 90 | 1020.3 |
| 20260506142055 | 12 | 0 | 0.0 | 0.0 | 0.00 | 0.00 | 0.00 | 90 | 1020.2 |
| 20260506141558 | 12 | 0 | 0.0 | 0.0 | 0.00 | 0.00 | 0.00 | 90 | 1020.2 |
| 20260506141057 | 12 | 0 | 0.0 | 0.0 | 0.00 | 0.00 | 0.00 | 90 | 1020.1 |
| 20260506140559 | 12 | 0 | 0.0 | 0.0 | 0.00 | 0.00 | 0.00 | 90 | 1020.1 |
| 20260506135555 | 12 | 0 | 0.0 | 0.0 | 0.00 | 0.00 | 0.00 | 90 | 1020.0 |
| 20260506135056 | 12 | 0 | 0.0 | 0.0 | 0.00 | 0.00 | 0.00 | 90 | 1020.0 |
| 20260506134557 | 12 | 0 | 0.0 | 0.0 | 0.00 | 0.00 | 0.00 | 90 | 1020.2 |
| 20260506134056 | 12 | 0 | 0.0 | 0.0 | 0.00 | 0.00 | 0.00 | 90 | 1020.2 |
| 20260506133556 | 12 | 0 | 0.0 | 0.0 | 0.00 | 0.00 | 0.00 | 90 | 1020.1 |
| 20260506133103 | 12 | 0 | 0.0 | 0.0 | 0.00 | 0.00 | 0.00 | 90 | 1020.1 |
| 20260506132556 | 11 | 0 | 0.0 | 0.0 | 0.00 | 0.00 | 0.00 | 90 | 1019.9 |
| 20260506132056 | 11 | 0 | 0.0 | 0.0 | 0.00 | 0.00 | 0.00 | 91 | 1019.9 |
| 20260506131600 | 11 | 0 | 0.0 | 0.0 | 0.00 | 0.00 | 0.00 | 90 | 1019.9 |
| 20260506131056 | 11 | 0 | 0.0 | 0.0 | 0.00 | 0.00 | 0.00 | 90 | 1019.9 |
| 20260506130556 | 11 | 0 | 0.0 | 0.0 | 0.00 | 0.00 | 0.00 | 90 | 1019.7 |
| 20260506130056 | 11 | 0 | 0.0 | 0.0 | 0.00 | 0.00 | 0.00 | 90 | 1019.7 |
| 20260506125556 | 11 | 0 | 0.0 | 0.0 | 0.00 | 0.00 | 0.00 | 90 | 1019.5 |
| 20260506125056 | 11 | 0 | 0.0 | 0.0 | 0.00 | 0.00 | 0.00 | 90 | 1019.6 |
| 20260506124558 | 11 | 0 | 0.0 | 0.0 | 0.00 | 0.00 | 0.00 | 90 | 1019.5 |
| 20260506124058 | 11 | 0 | 0.0 | 0.0 | 0.00 | 0.00 | 0.00 | 91 | 1019.6 |
| 20260506123557 | 11 | 0 | 0.0 | 0.0 | 0.00 | 0.00 | 0.00 | 91 | 1019.5 |
| 20260506123059 | 11 | 0 | 0.0 | 0.0 | 0.00 | 0.00 | 0.00 | 91 | 1019.5 |
| 20260506122557 | 11 | 0 | 0.0 | 0.0 | 0.00 | 0.00 | 0.00 | 91 | 1019.5 |
| 20260506122057 | 11 | 0 | 0.0 | 0.0 | 0.00 | 0.00 | 0.00 | 91 | 1019.5 |
| 20260506121607 | 11 | 0 | 0.0 | 0.0 | 0.00 | 0.00 | 0.00 | 91 | 1019.6 |
| 20260506121056 | 11 | 0 | 0.0 | 0.0 | 0.00 | 0.00 | 0.00 | 91 | 1019.5 |
| 20260506120556 | 11 | 0 | 0.0 | 0.0 | 0.00 | 0.00 | 0.00 | 91 | 1019.5 |
| 20260506120109 | 11 | 0 | 0.0 | 0.0 | 0.00 | 0.00 | 0.00 | 90 | 1019.5 |
| 20260506115556 | 11 | 0 | 0.0 | 0.0 | 0.00 | 0.00 | 0.00 | 90 | 1019.4 |
| 20260506115056 | 11 | 0 | 0.0 | 0.0 | 0.00 | 0.00 | 0.00 | 90 | 1019.4 |
| 20260506114612 | 11 | 0 | 0.0 | 0.0 | 0.00 | 0.00 | 0.00 | 91 | 1019.4 |
| 20260506114055 | 11 | 0 | 0.0 | 0.0 | 0.00 | 0.00 | 0.00 | 91 | 1019.4 |
| 20260506113555 | 11 | 0 | 0.0 | 0.0 | 0.00 | 0.00 | 0.00 | 91 | 1019.2 |
| 20260506113058 | 11 | 0 | 0.0 | 0.0 | 0.00 | 0.00 | 0.00 | 91 | 1019.4 |
| 20260506112559 | 11 | 0 | 0.0 | 0.0 | 0.00 | 0.00 | 0.00 | 91 | 1019.3 |
| 20260506112056 | 11 | 0 | 0.0 | 0.0 | 0.00 | 0.00 | 0.00 | 91 | 1019.2 |
| 20260506111556 | 11 | 0 | 0.0 | 0.0 | 0.00 | 0.00 | 0.00 | 91 | 1019.1 |
| 20260506111056 | 11 | 0 | 0.0 | 0.0 | 0.00 | 0.00 | 0.00 | 90 | 1019.0 |
| 20260506110556 | 10 | 0 | 0.0 | 0.0 | 0.00 | 0.00 | 0.00 | 90 | 1018.9 |
| 20260506110054 | 10 | 0 | 0.0 | 0.0 | 0.00 | 0.00 | 0.00 | 91 | 1018.8 |
| 20260506105558 | 10 | 0 | 0.0 | 0.0 | 0.00 | 0.00 | 0.00 | 91 | 1018.8 |
| 20260506105055 | 10 | 0 | 0.0 | 0.0 | 0.00 | 0.00 | 0.00 | 91 | 1018.8 |
| 20260506104557 | 10 | 0 | 0.0 | 0.0 | 0.00 | 0.00 | 0.00 | 90 | 1018.7 |
| 20260506104056 | 10 | 0 | 0.0 | 0.0 | 0.00 | 0.00 | 0.00 | 90 | 1018.7 |
| 20260506103555 | 10 | 0 | 0.0 | 0.0 | 0.00 | 0.00 | 0.00 | 90 | 1018.7 |
| 20260506103056 | 10 | 0 | 0.0 | 0.0 | 0.00 | 0.00 | 0.00 | 90 | 1018.6 |
| 20260506102556 | 10 | 0 | 0.0 | 0.0 | 0.00 | 0.00 | 0.00 | 90 | 1018.6 |
| 20260506102056 | 10 | 0 | 0.0 | 0.0 | 0.00 | 0.00 | 0.00 | 90 | 1018.6 |
| 20260506101555 | 10 | 0 | 0.0 | 0.0 | 0.00 | 0.00 | 0.00 | 90 | 1018.6 |
| 20260506101055 | 10 | 0 | 0.0 | 0.0 | 0.00 | 0.00 | 0.00 | 90 | 1018.4 |
| 20260506100556 | 10 | 0 | 0.0 | 0.0 | 0.00 | 0.00 | 0.00 | 90 | 1018.4 |
| 20260506100053 | 10 | 0 | 0.0 | 0.0 | 0.00 | 0.00 | 0.00 | 90 | 1018.4 |
| 20260506095556 | 10 | 0 | 0.0 | 0.0 | 0.00 | 0.00 | 0.00 | 90 | 1018.4 |
| 20260506095056 | 10 | 0 | 0.0 | 0.0 | 0.00 | 0.00 | 0.00 | 90 | 1018.3 |
| 20260506094600 | 9 | 0 | 0.0 | 0.0 | 0.00 | 0.00 | 0.00 | 90 | 1018.3 |
| 20260506094055 | 9 | 0 | 0.0 | 0.0 | 0.00 | 0.00 | 0.00 | 90 | 1018.3 |
| 20260506093555 | 9 | 0 | 0.0 | 0.0 | 0.00 | 0.00 | 0.00 | 90 | 1018.2 |
| 20260506093113 | 9 | 0 | 0.0 | 0.0 | 0.00 | 0.00 | 0.00 | 90 | 1018.2 |
| 20260506092555 | 9 | 0 | 0.0 | 0.0 | 0.00 | 0.00 | 0.00 | 90 | 1018.3 |
| 20260506092056 | 9 | 0 | 0.0 | 0.0 | 0.00 | 0.00 | 0.00 | 90 | 1018.2 |
| 20260506091603 | 9 | 0 | 0.0 | 0.0 | 0.00 | 0.00 | 0.00 | 89 | 1018.2 |
| 20260506091054 | 9 | 0 | 0.0 | 0.0 | 0.00 | 0.00 | 0.00 | 90 | 1018.3 |
| 20260506090557 | 10 | 0 | 0.0 | 0.0 | 0.00 | 0.00 | 0.00 | 90 | 1018.2 |
| 20260506090106 | 10 | 0 | 0.0 | 0.0 | 0.00 | 0.00 | 0.00 | 90 | 1018.1 |
| 20260506085555 | 10 | 0 | 0.0 | 0.0 | 0.00 | 0.00 | 0.00 | 89 | 1018.2 |
| 20260506085056 | 10 | 0 | 0.0 | 0.0 | 0.00 | 0.00 | 0.00 | 89 | 1018.1 |
| 20260506084556 | 10 | 0 | 0.0 | 0.0 | 0.00 | 0.00 | 0.00 | 90 | 1018.0 |
| 20260506084056 | 10 | 0 | 0.0 | 0.0 | 0.00 | 0.00 | 0.00 | 89 | 1017.9 |
| 20260506083556 | 10 | 0 | 0.0 | 0.0 | 0.00 | 0.00 | 0.00 | 89 | 1017.9 |
| 20260506083053 | 10 | 0 | 0.0 | 0.0 | 0.00 | 0.00 | 0.00 | 89 | 1017.9 |
| 20260506082559 | 10 | 0 | 0.0 | 0.0 | 0.00 | 0.00 | 0.00 | 89 | 1017.9 |
| 20260506082055 | 10 | 0 | 0.0 | 0.0 | 0.00 | 0.00 | 0.00 | 89 | 1017.8 |
| 20260506081555 | 10 | 0 | 0.0 | 0.0 | 0.00 | 0.00 | 0.00 | 89 | 1017.8 |
| 20260506081055 | 10 | 0 | 0.0 | 0.0 | 0.00 | 0.00 | 0.00 | 89 | 1017.7 |
| 20260506080558 | 10 | 0 | 0.0 | 0.0 | 0.00 | 0.00 | 0.00 | 89 | 1017.7 |
| 20260506080104 | 10 | 0 | 0.0 | 0.0 | 0.00 | 0.00 | 0.00 | 89 | 1017.7 |
| 20260506073111 | 10 | 0 | 0.0 | 0.0 | 0.00 | 0.00 | 0.00 | 89 | 1017.6 |
| 20260506072559 | 10 | 0 | 0.0 | 0.0 | 0.00 | 0.00 | 0.00 | 89 | 1017.6 |
| 20260506072058 | 11 | 0 | 0.0 | 0.0 | 0.00 | 0.00 | 0.00 | 89 | 1017.5 |
| 20260506071554 | 11 | 0 | 0.0 | 0.0 | 0.00 | 0.00 | 0.00 | 89 | 1017.5 |
| 20260506071055 | 11 | 0 | 0.0 | 0.0 | 0.00 | 0.00 | 0.00 | 89 | 1017.5 |
| 20260506070555 | 11 | 0 | 0.0 | 0.0 | 0.00 | 0.00 | 0.00 | 89 | 1017.5 |
| 20260506062055 | 11 | 0 | 0.0 | 0.0 | 0.00 | 0.00 | 0.00 | 88 | 1017.3 |
| 20260506061602 | 11 | 0 | 0.0 | 0.0 | 0.00 | 0.00 | 0.00 | 88 | 1017.4 |
| 20260506061055 | 11 | 0 | 0.0 | 0.0 | 0.00 | 0.00 | 0.00 | 88 | 1017.2 |
| 20260506060555 | 11 | 0 | 0.0 | 0.0 | 0.00 | 0.00 | 0.00 | 88 | 1017.2 |
| 20260506051055 | 12 | 0 | 0.0 | 0.0 | 0.00 | 0.00 | 0.00 | 86 | 1016.7 |
| 20260506050555 | 12 | 0 | 0.0 | 0.0 | 0.00 | 0.00 | 0.00 | 86 | 1016.6 |
| 20260506045053 | 13 | 0 | 0.0 | 0.0 | 0.00 | 0.00 | 0.00 | 85 | 1016.7 |
| 20260506044605 | 13 | 0 | 0.0 | 0.0 | 0.00 | 0.00 | 0.00 | 85 | 1016.6 |
| 20260506044055 | 13 | 0 | 0.0 | 0.0 | 0.00 | 0.00 | 0.00 | 84 | 1016.6 |
| 20260506043558 | 13 | 0 | 0.0 | 0.0 | 0.00 | 0.00 | 0.00 | 84 | 1016.5 |
| 20260506043056 | 13 | 0 | 0.0 | 0.0 | 0.00 | 0.00 | 0.00 | 83 | 1016.4 |
| 20260506042556 | 13 | 0 | 0.0 | 0.0 | 0.00 | 0.00 | 0.00 | 83 | 1016.4 |
| 20260506042057 | 14 | 0 | 0.0 | 0.0 | 0.00 | 0.00 | 0.00 | 82 | 1016.3 |
| 20260506041607 | 14 | 0 | 0.0 | 0.0 | 0.00 | 0.00 | 0.00 | 81 | 1016.2 |
| 20260506041058 | 14 | 0 | 0.0 | 0.0 | 0.00 | 0.00 | 0.00 | 81 | 1016.2 |
| 20260506040555 | 14 | 0 | 0.0 | 0.0 | 0.00 | 0.00 | 0.00 | 80 | 1016.3 |
| 20260506035556 | 15 | 0 | 0.0 | 0.0 | 0.00 | 0.00 | 0.00 | 79 | 1016.3 |
| 20260506035058 | 15 | 0 | 0.0 | 0.0 | 0.00 | 0.00 | 0.00 | 78 | 1016.3 |
| 20260506034602 | 15 | 0 | 0.0 | 0.0 | 0.00 | 0.00 | 0.00 | 77 | 1016.2 |
| 20260506034054 | 15 | 0 | 0.0 | 0.0 | 0.00 | 0.00 | 0.00 | 76 | 1016.2 |
| 20260506033555 | 16 | 0 | 0.0 | 0.0 | 0.00 | 0.00 | 0.00 | 76 | 1016.1 |
| 20260506033056 | 16 | 0 | 0.0 | 0.0 | 0.00 | 0.00 | 0.00 | 75 | 1016.0 |
| 20260506032553 | 16 | 0 | 0.0 | 0.0 | 0.00 | 0.00 | 0.00 | 73 | 1016.0 |
| 20260506032054 | 17 | 0 | 0.0 | 0.0 | 0.00 | 0.00 | 0.00 | 72 | 1015.9 |
| 20260506031559 | 17 | 0 | 0.0 | 0.0 | 0.00 | 0.00 | 0.00 | 70 | 1015.9 |
| 20260506031055 | 17 | 0 | 0.0 | 0.0 | 0.00 | 0.00 | 0.00 | 69 | 1015.9 |
| 20260506030556 | 17 | 0 | 0.0 | 0.0 | 0.00 | 0.00 | 0.00 | 68 | 1015.8 |
| 20260506030057 | 17 | 0 | 0.0 | 0.0 | 0.00 | 0.00 | 0.00 | 68 | 1015.8 |
| 20260506025554 | 18 | 0 | 0.0 | 0.0 | 0.00 | 0.00 | 0.00 | 67 | 1015.7 |
| 20260506025057 | 18 | 0 | 0.0 | 0.0 | 0.00 | 0.00 | 0.00 | 67 | 1015.8 |
| 20260506024608 | 18 | 0 | 0.0 | 0.0 | 0.00 | 0.00 | 0.00 | 66 | 1015.8 |
| 20260506024053 | 18 | 0 | 0.0 | 0.0 | 0.00 | 0.00 | 0.00 | 66 | 1015.7 |
| 20260506023555 | 18 | 0 | 0.0 | 0.0 | 0.00 | 0.00 | 0.00 | 65 | 1015.7 |
| 20260506023056 | 18 | 0 | 0.0 | 6.4 | 0.00 | 0.00 | 0.00 | 65 | 1015.8 |
| 20260506022553 | 18 | 0 | 0.0 | 6.4 | 0.00 | 0.00 | 0.00 | 66 | 1015.7 |
| 20260506022055 | 18 | 0 | 0.0 | 6.4 | 0.00 | 0.00 | 0.00 | 64 | 1015.6 |
| 20260506021553 | 18 | 0 | 0.0 | 1.6 | 0.00 | 0.00 | 0.00 | 64 | 1015.7 |
| 20260506021055 | 19 | 0 | 0.0 | 1.6 | 0.00 | 0.00 | 0.00 | 64 | 1015.7 |
| 20260506020552 | 19 | 0 | 0.0 | 3.2 | 0.00 | 0.00 | 0.00 | 63 | 1015.7 |
| 20260506020119 | 18 | 0 | 0.0 | 6.4 | 0.00 | 0.00 | 0.00 | 64 | 1015.7 |
| 20260506015556 | 19 | 0 | 3.2 | 6.4 | 0.00 | 0.00 | 0.00 | 64 | 1015.6 |
| 20260506015056 | 19 | 78 | 0.0 | 4.8 | 0.00 | 0.00 | 0.00 | 64 | 1015.6 |
| 20260506014553 | 18 | 0 | 0.0 | 3.2 | 0.00 | 0.00 | 0.00 | 64 | 1015.7 |
| 20260506014058 | 18 | 5 | 0.0 | 4.8 | 0.00 | 0.00 | 0.00 | 65 | 1015.7 |
| 20260506013555 | 18 | 0 | 0.0 | 4.8 | 0.00 | 0.00 | 0.00 | 71 | 1015.7 |
| 20260506013055 | 18 | 0 | 1.6 | 4.8 | 0.00 | 0.00 | 0.00 | 65 | 1015.7 |
| 20260506012555 | 18 | 0 | 1.6 | 6.4 | 0.00 | 0.00 | 0.00 | 64 | 1015.7 |
| 20260506012059 | 18 | 0 | 0.0 | 6.4 | 0.00 | 0.00 | 0.00 | 65 | 1015.8 |
| 20260506011600 | 18 | 0 | 0.0 | 6.4 | 0.00 | 0.00 | 0.00 | 64 | 1015.8 |
| 20260506011056 | 18 | 0 | 0.0 | 6.4 | 0.00 | 0.00 | 0.00 | 64 | 1015.8 |
| 20260506010556 | 19 | 261 | 1.6 | 4.8 | 0.00 | 0.00 | 0.00 | 63 | 1015.9 |
| 20260506010053 | 18 | 221 | 0.0 | 6.4 | 0.00 | 0.00 | 0.00 | 70 | 1015.9 |
| 20260506005553 | 18 | 0 | 1.6 | 6.4 | 0.00 | 0.00 | 0.00 | 65 | 1016.0 |
| 20260506005054 | 19 | 160 | 0.0 | 6.4 | 0.00 | 0.00 | 0.00 | 63 | 1016.0 |
| 20260506004556 | 18 | 0 | 0.0 | 6.4 | 0.00 | 0.00 | 0.00 | 64 | 1016.0 |
| 20260506004055 | 18 | 0 | 1.6 | 8.0 | 0.00 | 0.00 | 0.00 | 65 | 1015.9 |
| 20260506003553 | 18 | 0 | 0.0 | 8.0 | 0.00 | 0.00 | 0.00 | 64 | 1016.0 |
| 20260506003055 | 18 | 105 | 1.6 | 8.0 | 0.00 | 0.00 | 0.00 | 64 | 1016.1 |
| 20260506002553 | 18 | 88 | 3.2 | 8.0 | 0.00 | 0.00 | 0.00 | 65 | 1016.1 |
| 20260506002056 | 18 | 96 | 1.6 | 8.0 | 0.00 | 0.00 | 0.00 | 65 | 1016.0 |
| 20260506001606 | 18 | 200 | 3.2 | 14.5 | 0.00 | 0.00 | 0.00 | 65 | 1016.1 |
| 20260506001056 | 18 | 63 | 4.8 | 14.5 | 0.00 | 0.00 | 0.00 | 66 | 1016.1 |
| 20260506000555 | 18 | 63 | 6.4 | 14.5 | 0.00 | 0.00 | 0.00 | 66 | 1016.1 |
| 20260506000122 | 18 | 104 | 3.2 | 6.4 | 0.00 | 0.00 | 0.00 | 65 | 1016.2 |
| 20260505235555 | 18 | 93 | 1.6 | 11.3 | 0.00 | 0.00 | 0.00 | 67 | 1016.2 |
| 20260505235055 | 18 | 269 | 4.8 | 11.3 | 0.00 | 0.00 | 0.00 | 66 | 1016.3 |
| 20260505234607 | 18 | 218 | 3.2 | 8.0 | 0.00 | 0.00 | 0.00 | 66 | 1016.4 |
| 20260505234056 | 17 | 198 | 1.6 | 8.0 | 0.00 | 0.00 | 0.00 | 68 | 1016.5 |
| 20260505233555 | 17 | 0 | 1.6 | 8.0 | 0.00 | 0.00 | 0.00 | 68 | 1016.4 |
| 20260505233056 | 17 | 213 | 3.2 | 8.0 | 0.00 | 0.00 | 0.00 | 68 | 1016.4 |
| 20260505232553 | 17 | 192 | 0.0 | 8.0 | 0.00 | 0.00 | 0.00 | 69 | 1016.6 |
| 20260505232055 | 17 | 187 | 3.2 | 8.0 | 0.00 | 0.00 | 0.00 | 68 | 1016.6 |
| 20260505231557 | 17 | 187 | 1.6 | 6.4 | 0.00 | 0.00 | 0.00 | 69 | 1016.6 |
| 20260505231053 | 17 | 179 | 1.6 | 6.4 | 0.00 | 0.00 | 0.00 | 70 | 1016.7 |
| 20260505230552 | 17 | 0 | 1.6 | 6.4 | 0.00 | 0.00 | 0.00 | 69 | 1016.7 |
| 20260505230059 | 17 | 0 | 1.6 | 8.0 | 0.00 | 0.00 | 0.00 | 69 | 1016.8 |
| 20260505225558 | 17 | 0 | 1.6 | 8.0 | 0.00 | 0.00 | 0.00 | 69 | 1016.9 |
| 20260505225055 | 17 | 192 | 0.0 | 8.0 | 0.00 | 0.00 | 0.00 | 69 | 1016.9 |
| 20260505224558 | 17 | 0 | 1.6 | 8.0 | 0.00 | 0.00 | 0.00 | 68 | 1016.8 |
| 20260505224059 | 17 | 0 | 1.6 | 4.8 | 0.00 | 0.00 | 0.00 | 71 | 1017.0 |
| 20260505223556 | 17 | 254 | 1.6 | 4.8 | 0.00 | 0.00 | 0.00 | 70 | 1017.0 |
| 20260505223104 | 17 | 132 | 0.0 | 8.0 | 0.00 | 0.00 | 0.00 | 71 | 1017.0 |
| 20260505222556 | 17 | 0 | 0.0 | 9.7 | 0.00 | 0.00 | 0.00 | 70 | 1017.0 |